Temperature
14 14 14 14 13 13 13 12 13 13 13 13 14 14 13 13 13 13 13 14 14 13 13 13 13 12 12 12 12 12 12 12 11 11 11 11 11 11 10 10 10 10 10
15 14 14 14 14 14 14 13 13 13 12 12 13 13 13 13 13 13 14 14 14 14 14 13 13 13 13 12 12 12 12 12 11 12 12 11 11 11 10 10 10 9 9
16 15 15 15 15 14 14 14 14 13 12 12 12 12 12 13 13 14 14 14 14 14 14 14 13 13 13 13 13 12 12 12 11 11 11 11 10 10 10 10 10 9 8
17 16 16 16 15 15 14 14 14 13 13 12 12 12 12 12 12 13 13 13 13 14 14 14 14 14 13 13 13 12 12 12 12 11 11 10 10 10 10 10 9 9 8
18 18 17 17 16 15 14 14 14 13 13 12 12 12 11 11 12 12 12 12 12 13 13 14 14 14 14 13 13 12 12 12 11 11 11 10 10 10 10 10 10 9 9
19 18 18 18 16 15 15 14 13 13 12 11 11 11 11 11 11 11 11 11 11 11 12 12 13 13 13 13 12 12 12 12 11 11 11 10 10 10 10 10 10 9 9
19 18 18 17 16 15 15 14 13 12 12 11 10 10 10 10 10 10 10 10 11 11 11 12 12 12 12 12 12 12 12 12 12 11 11 10 10 10 10 9 9 9 9
17 16 16 16 15 14 13 13 12 11 11 11 10 10 10 10 10 10 10 11 12 11 11 11 11 11 11 11 11 11 11 11 11 11 11 10 10 10 10 9 9 8 8
15 15 14 14 13 12 12 12 12 11 11 11 10 10 10 10 10 11 11 11 11 11 11 11 11 11 11 11 11 11 11 11 11 11 10 10 10 10 9 9 8 8 7
15 15 14 13 12 12 11 11 11 11 11 11 11 11 10 11 10 11 11 11 11 11 11 11 11 11 11 10 10 10 11 11 11 11 10 10 10 9 8 8 7 7 7
15 15 15 14 13 12 12 11 11 11 11 11 11 11 10 10 10 10 10 10 10 10 10 10 10 10 10 10 10 10 10 11 11 10 10 10 9 9 8 8 8 7 6
14 14 14 14 13 12 12 12 12 12 11 11 11 11 11 10 10 10 9 9 9 10 10 10 10 10 10 10 10 10 10 10 10 10 10 9 9 9 9 8 8 7 6
13 13 13 13 13 13 12 12 11 12 12 12 11 11 11 10 10 10 10 10 9 10 10 10 10 10 10 10 10 10 10 10 10 10 10 9 9 9 8 8 7 6 5
13 13 13 13 13 12 12 12 11 12 12 12 12 11 11 11 10 10 10 10 9 9 9 10 10 10 10 10 10 10 10 10 10 10 9 9 9 8 8 7 6 6 5
13 13 13 12 12 12 12 12 12 12 12 12 12 11 11 11 11 10 10 10 9 9 10 10 10 10 10 11 10 10 10 10 10 10 9 9 8 8 7 6 6 5 5
11 11 12 12 12 12 12 11 11 11 12 12 12 11 11 11 11 10 10 10 10 9 9 10 10 10 10 10 10 10 10 10 9 9 9 8 8 7 6 6 6 5 5
10 10 10 10 10 10 11 11 11 11 11 11 11 11 11 11 11 11 10 10 10 9 9 9 9 9 10 10 10 10 9 9 9 9 8 8 7 7 6 6 5 5 5
9 10 10 9 9 9 9 10 10 10 10 10 10 10 10 11 11 11 10 10 10 10 9 9 9 9 9 9 9 9 9 9 8 8 8 8 8 7 6 6 5 5 4
8 8 8 8 8 8 9 9 9 9 9 9 9 9 9 10 10 10 10 10 10 10 9 9 9 9 9 9 9 9 8 8 8 8 8 8 7 6 5 5 5 4 4
7 7 7 7 7 7 8 8 8 8 8 8 8 8 9 9 9 9 9 10 10 10 10 9 9 9 9 9 9 8 8 8 8 8 8 7 7 6 5 5 4 4 2
6 6 6 6 6 6 6 6 7 7 7 7 7 7 8 8 8 8 8 9 9 10 9 9 9 9 9 9 8 8 8 8 7 7 7 7 6 5 5 5 4 3 1
4 4 4 5 5 5 5 5 5 5 6 6 6 7 7 7 7 7 8 8 8 9 9 9 9 9 9 9 9 8 8 7 6 6 6 6 5 5 5 4 3 1 0
3 3 3 3 3 4 4 4 4 4 4 5 4 5 5 6 6 6 7 8 8 9 9 9 9 9 9 9 9 8 8 8 7 7 6 5 4 4 3 3 1 0 -1
1 2 2 2 2 3 3 3 3 3 3 3 3 3 4 5 5 5 6 7 7 8 8 9 9 9 8 8 9 8 8 7 6 5 5 4 4 3 3 2 1 -1 -2
1 1 1 2 2 2 2 2 2 2 1 2 2 2 3 4 4 4 5 5 6 7 8 8 8 8 8 8 8 8 7 5 4 3 3 3 3 2 1 1 -0 -1 -2
-0 -0 0 1 1 1 1 1 1 0 0 0 0 1 2 3 3 3 3 4 5 6 7 7 7 8 8 7 7 7 7 5 4 2 2 2 2 1 -0 -0 -1 -1 -2
Wind_Speed
5 3 3 5 8 8 7 5 6 6 6 8 9 9 7 8 9 10 10 16 17 17 18 19 18 18 17 17 17 17 17 17 17 17 18 18 17 17 18 18 19 19 19
4 6 6 4 5 8 8 6 6 7 7 5 8 7 8 9 10 11 13 16 21 21 21 21 22 22 21 21 21 20 20 20 20 20 21 21 20 20 20 20 21 21 22
8 5 6 6 6 10 9 7 7 6 7 7 8 8 6 8 9 12 15 15 16 22 24 23 24 24 25 25 24 23 23 22 23 23 23 23 22 22 22 23 23 24 25
13 6 7 7 7 9 6 7 7 7 7 6 6 6 7 7 8 9 12 14 16 16 21 25 25 26 27 27 27 26 26 25 25 25 25 24 23 23 24 24 25 26 27
16 9 10 9 8 7 8 8 8 7 7 8 8 8 8 8 9 9 10 10 13 16 18 21 26 28 28 28 28 28 28 28 27 26 25 25 24 24 24 24 25 26 27
15 10 11 10 9 8 9 8 9 8 7 7 7 8 8 9 9 10 11 9 10 14 17 18 19 22 27 29 29 30 29 29 28 27 26 25 24 24 24 24 24 25 26
12 12 11 10 10 10 11 10 9 9 9 6 6 7 7 9 11 9 8 9 11 11 14 17 18 18 17 23 28 30 29 28 27 27 26 25 24 24 23 22 22 22 23
9 11 13 10 10 10 11 12 11 9 8 8 7 6 5 6 10 12 13 14 14 11 12 12 13 14 15 15 18 25 27 26 26 26 25 23 22 21 20 19 19 19 19
8 10 11 10 10 11 11 12 11 12 10 9 10 7 6 8 5 7 13 13 11 9 9 8 11 12 15 14 16 20 24 24 25 24 23 22 20 18 17 17 17 16 15
13 13 12 12 12 12 13 13 14 14 13 13 9 12 11 6 6 5 5 7 10 10 10 9 10 11 12 12 16 19 21 23 24 23 22 20 18 17 17 16 14 12 12
12 14 13 12 13 14 15 15 15 16 15 15 13 9 12 13 13 11 8 6 6 9 11 11 11 11 10 12 13 18 22 23 24 23 22 20 18 17 14 10 8 11 13
6 9 11 12 13 13 15 17 17 15 16 16 15 13 10 8 11 13 16 12 9 7 9 11 12 11 10 9 15 21 23 23 23 22 22 20 18 13 10 9 10 12 14
6 8 8 10 12 12 13 14 16 17 17 17 17 16 15 16 10 10 15 17 14 9 9 12 14 13 12 9 11 20 21 22 21 21 21 20 15 13 12 11 11 13 13
7 9 8 8 10 11 12 13 13 16 14 17 18 17 16 16 15 15 15 15 16 13 11 13 9 14 14 13 15 19 14 20 20 21 20 19 16 15 13 12 12 12 12
8 10 11 11 10 9 11 12 12 14 15 17 18 19 19 17 15 14 14 15 17 19 19 13 11 12 13 13 15 13 11 17 20 20 20 18 18 16 14 13 12 12 12
10 11 10 10 11 11 11 10 11 13 15 16 15 18 19 17 15 14 14 15 16 19 20 10 11 10 12 12 14 13 13 18 20 21 20 19 18 16 15 14 13 11 10
12 12 12 11 11 11 11 11 12 13 15 15 15 17 19 17 16 15 14 15 16 17 22 19 9 9 9 9 7 7 8 11 12 21 21 20 18 18 17 15 12 10 9
12 13 13 13 13 12 11 11 13 13 14 15 16 17 18 16 18 17 16 18 18 18 20 23 13 8 8 8 8 9 9 10 9 18 21 21 20 19 17 14 11 10 9
13 13 13 14 14 14 13 12 13 13 12 13 14 17 19 18 20 17 18 19 16 17 17 19 17 8 5 3 5 7 9 7 10 14 19 20 19 17 15 12 11 11 11
13 14 14 15 15 15 15 14 13 12 12 12 13 15 17 19 20 19 18 19 18 19 18 18 17 9 5 3 5 6 8 10 10 10 14 14 15 15 14 12 12 12 12
15 14 15 15 15 14 14 16 17 15 14 14 15 15 16 19 22 21 19 19 17 18 17 17 17 12 9 5 8 9 12 10 9 6 7 7 7 6 7 10 12 13 13
14 15 15 16 16 16 21 23 19 16 15 15 16 17 16 17 19 22 24 25 24 22 20 18 17 17 17 15 12 11 10 8 7 7 8 7 6 6 6 6 10 13 14
13 12 13 14 15 17 22 20 18 16 16 15 16 17 16 15 18 17 20 22 23 27 27 22 21 21 18 18 16 16 14 9 7 8 7 5 5 6 6 8 14 15 15
12 13 13 13 13 16 18 17 19 16 16 16 17 17 18 19 17 19 19 20 20 19 20 20 21 20 17 15 19 16 13 7 7 4 5 5 5 5 7 6 13 15 15
12 12 13 14 14 13 15 17 17 13 15 18 18 18 19 19 22 23 21 21 21 17 12 12 15 14 15 16 18 13 12 10 5 4 3 4 4 3 2 3 7 13 13
12 14 15 14 12 11 16 18 18 12 14 16 18 18 20 22 25 26 22 22 22 17 8 4 2 3 4 12 18 14 14 13 5 5 5 5 4 3 2 2 2 2 4
Wind_Direction
193 208 204 204 195 200 199 200 212 229 207 206 215 223 232 229 231 225 214 207 211 221 230 239 247 251 251 252 253 254 254 255 257 259 261 260 260 263 268 271 274 277 279
189 202 206 206 199 207 211 201 206 229 227 214 219 214 215 224 234 237 230 223 222 223 230 237 242 247 250 251 252 253 254 255 255 256 258 261 262 263 265 268 271 272 274
201 191 206 210 202 208 212 211 221 227 228 224 222 223 221 217 220 224 227 228 226 224 228 236 241 244 248 250 251 252 252 253 255 256 258 260 263 264 266 269 271 273 274
204 198 207 213 205 206 209 213 215 223 228 229 232 235 232 232 233 230 227 225 225 226 228 233 238 243 247 250 251 252 252 252 252 255 258 261 263 265 267 270 273 275 276
208 202 211 212 206 209 213 218 214 213 224 228 228 230 231 230 232 230 230 227 224 223 224 228 231 235 242 248 252 254 254 255 253 253 256 260 263 264 266 269 272 275 278
213 208 215 214 206 212 218 217 216 215 220 221 231 236 234 234 234 233 232 229 229 228 225 227 230 234 236 244 252 256 257 257 256 255 255 257 259 262 265 269 273 277 282
214 211 216 214 213 219 222 217 212 216 223 217 235 256 259 246 242 241 238 236 235 229 227 231 233 231 234 238 245 252 254 254 254 254 253 254 256 258 263 268 273 279 286
220 219 217 217 216 222 225 221 215 218 221 207 214 232 260 262 243 239 240 241 238 231 233 232 229 223 223 228 236 243 247 248 250 250 250 250 252 256 260 265 272 281 290
232 233 229 222 222 224 232 228 221 219 223 217 209 205 220 238 256 239 231 232 226 222 228 231 231 226 224 225 231 237 235 238 243 246 247 247 247 249 254 263 274 286 296
224 225 226 224 226 228 232 232 227 227 223 229 223 221 225 209 224 269 254 227 215 221 227 231 233 232 227 224 226 226 228 231 238 241 243 243 241 243 253 264 273 284 291
226 222 223 226 232 235 236 236 233 229 227 229 227 222 232 238 239 246 260 243 227 219 218 221 223 224 223 226 225 227 226 228 236 239 241 239 237 243 253 256 258 269 276
255 231 223 226 233 239 242 244 243 238 234 231 230 226 218 222 228 235 246 250 245 233 220 224 228 225 222 221 221 220 220 223 232 238 237 235 236 234 219 229 247 263 273
291 267 241 230 232 237 242 244 246 246 240 236 235 235 233 234 227 224 239 252 254 243 227 232 231 230 227 221 223 219 217 215 219 227 230 231 225 202 204 222 244 261 270
317 315 304 273 248 241 242 244 247 249 247 243 242 240 241 241 237 234 236 246 256 256 239 237 229 227 227 222 221 211 212 207 211 218 222 222 202 197 204 221 241 257 268
328 328 324 316 302 279 259 249 249 249 249 247 247 247 248 248 244 241 241 239 246 259 258 239 233 226 224 221 214 206 198 202 205 211 210 201 193 198 208 222 236 249 264
335 331 327 321 315 309 301 287 272 263 257 254 250 249 249 248 247 243 244 244 241 248 259 249 235 228 222 222 210 199 197 192 197 202 196 190 192 201 213 222 231 245 260
334 330 325 319 312 307 305 302 297 290 281 276 267 260 255 248 248 245 244 245 245 243 253 259 238 229 215 207 191 191 180 182 192 193 190 190 196 205 213 220 229 239 247
329 326 324 319 312 304 296 290 290 290 289 288 287 283 275 266 256 250 246 245 245 242 246 256 253 223 206 200 191 191 187 189 191 195 193 195 201 209 215 220 227 232 239
324 321 319 316 314 311 306 296 287 285 284 286 289 289 287 281 272 263 252 248 246 244 242 248 252 229 198 161 177 200 199 204 196 197 196 199 206 213 217 223 229 237 243
322 321 319 318 316 314 311 307 307 305 299 294 289 286 285 283 280 275 267 258 249 245 241 241 245 228 191 165 168 186 199 205 203 189 195 198 208 213 219 228 236 243 245
322 318 317 317 315 316 316 325 327 321 315 308 301 294 289 285 280 279 278 274 264 254 246 242 242 229 203 179 199 199 205 196 198 181 181 189 192 202 214 235 240 237 239
319 319 319 320 321 322 321 321 329 330 322 314 310 305 299 291 288 284 277 272 265 261 256 250 245 237 224 213 203 198 191 176 198 188 178 193 184 202 202 201 228 235 238
315 313 315 316 317 315 314 323 340 335 325 317 314 312 310 305 300 296 292 284 270 257 249 251 255 248 236 216 199 198 196 186 185 167 160 184 191 211 201 212 226 235 240
315 315 311 308 307 309 315 330 340 337 326 320 318 316 315 313 308 303 301 297 287 271 255 250 252 254 246 224 199 194 183 131 88 126 141 166 187 200 201 207 231 242 251
315 313 312 308 307 309 320 332 341 335 326 323 322 319 315 312 310 312 311 306 298 283 272 262 256 255 241 204 174 155 152 151 141 166 156 152 171 168 189 228 244 251 243
311 313 309 306 309 323 330 337 337 329 324 323 321 317 312 309 311 314 312 307 298 288 255 215 144 115 149 167 165 164 163 159 133 156 170 161 157 149 210 270 249 232 232
Height
1506 1506 1506 1506 1505 1505 1504 1504 1504 1504 1504 1504 1504 1505 1505 1505 1506 1506 1505 1505 1506 1505 1505 1505 1505 1505 1504 1504 1503 1503 1502 1501 1500 1500 1499 1498 1496 1495 1495 1493 1492 1491 1490
1504 1504 1504 1503 1503 1502 1502 1501 1501 1501 1501 1500 1500 1500 1500 1501 1501 1501 1501 1501 1501 1501 1501 1501 1500 1500 1499 1498 1497 1497 1496 1495 1495 1493 1493 1492 1491 1489 1489 1488 1487 1485 1484
1501 1500 1500 1500 1499 1499 1498 1497 1496 1496 1496 1495 1495 1495 1495 1495 1495 1495 1495 1495 1495 1495 1495 1495 1495 1494 1493 1493 1491 1490 1489 1488 1488 1487 1486 1486 1485 1484 1483 1482 1481 1479 1478
1497 1496 1496 1495 1495 1494 1493 1492 1491 1490 1490 1490 1490 1489 1490 1490 1489 1489 1489 1488 1488 1488 1487 1488 1487 1487 1486 1486 1485 1483 1482 1481 1479 1479 1480 1480 1479 1478 1477 1476 1475 1474 1472
1492 1491 1490 1489 1489 1488 1487 1487 1485 1485 1485 1484 1484 1484 1483 1483 1482 1482 1481 1481 1480 1480 1479 1479 1479 1478 1478 1478 1477 1476 1475 1473 1472 1471 1472 1472 1472 1472 1470 1469 1468 1467 1465
1485 1484 1483 1482 1482 1482 1481 1480 1480 1480 1480 1480 1480 1478 1477 1476 1475 1474 1473 1473 1472 1472 1471 1470 1470 1469 1468 1468 1469 1469 1467 1466 1465 1465 1464 1464 1465 1465 1464 1463 1461 1460 1458
1478 1477 1476 1475 1475 1474 1474 1474 1474 1474 1473 1474 1475 1473 1471 1469 1466 1465 1464 1463 1462 1462 1462 1461 1460 1459 1458 1459 1460 1460 1459 1458 1458 1458 1458 1458 1458 1457 1457 1456 1455 1453 1452
1472 1471 1470 1469 1468 1468 1468 1468 1467 1467 1467 1468 1468 1468 1465 1461 1455 1456 1455 1453 1452 1453 1452 1452 1451 1450 1449 1449 1450 1451 1452 1451 1451 1452 1452 1451 1451 1450 1450 1449 1448 1447 1446
1468 1467 1466 1464 1463 1462 1461 1461 1462 1461 1460 1460 1460 1461 1458 1450 1447 1444 1443 1442 1442 1443 1444 1444 1444 1443 1442 1441 1442 1443 1444 1444 1444 1445 1445 1444 1444 1443 1442 1442 1440 1439 1438
1462 1460 1459 1458 1457 1456 1455 1455 1455 1454 1454 1452 1451 1450 1448 1445 1444 1438 1437 1435 1435 1435 1435 1436 1436 1436 1436 1435 1435 1436 1437 1437 1437 1437 1437 1437 1436 1435 1435 1434 1432 1430 1429
1456 1453 1451 1450 1448 1447 1445 1445 1445 1445 1444 1443 1441 1440 1439 1438 1436 1434 1430 1427 1426 1425 1426 1427 1426 1427 1428 1428 1428 1429 1430 1430 1430 1429 1429 1429 1428 1427 1427 1426 1424 1422 1420
1452 1450 1447 1444 1442 1440 1439 1438 1438 1437 1436 1434 1433 1431 1430 1428 1425 1425 1423 1420 1418 1417 1418 1418 1416 1416 1417 1419 1419 1419 1420 1421 1421 1421 1421 1420 1420 1419 1419 1418 1415 1413 1411
1448 1447 1444 1440 1437 1435 1433 1432 1431 1430 1429 1427 1425 1423 1421 1419 1417 1417 1416 1412 1410 1408 1409 1407 1406 1406 1406 1408 1410 1410 1410 1411 1412 1412 1412 1412 1411 1410 1410 1408 1406 1404 1402
1444 1443 1440 1437 1434 1430 1428 1426 1425 1424 1422 1420 1417 1415 1413 1411 1410 1408 1406 1405 1402 1399 1398 1396 1396 1395 1396 1396 1398 1400 1400 1401 1402 1402 1402 1403 1402 1402 1401 1399 1397 1395 1393
1441 1438 1435 1433 1430 1427 1424 1421 1418 1416 1414 1412 1409 1407 1405 1403 1401 1399 1398 1397 1396 1391 1385 1385 1385 1384 1386 1386 1387 1388 1389 1390 1392 1393 1393 1394 1393 1393 1391 1389 1387 1385 1383
1437 1433 1430 1427 1425 1422 1419 1415 1411 1408 1406 1403 1400 1398 1395 1393 1392 1390 1389 1388 1387 1383 1377 1373 1375 1376 1377 1377 1377 1378 1379 1380 1381 1382 1383 1383 1383 1383 1381 1379 1376 1375 1373
1434 1430 1425 1422 1419 1416 1413 1408 1404 1401 1398 1395 1392 1389 1385 1384 1382 1380 1379 1378 1376 1374 1368 1363 1366 1367 1368 1367 1367 1368 1368 1368 1369 1371 1372 1372 1372 1372 1370 1369 1367 1365 1363
1430 1426 1421 1417 1413 1409 1406 1402 1398 1393 1389 1386 1383 1380 1377 1375 1372 1370 1368 1365 1364 1362 1360 1356 1355 1357 1357 1357 1358 1358 1357 1358 1359 1360 1360 1361 1362 1362 1361 1360 1358 1356 1354
1425 1421 1416 1411 1407 1402 1398 1394 1391 1386 1382 1378 1375 1371 1367 1365 1361 1358 1355 1352 1350 1349 1348 1346 1344 1346 1347 1346 1346 1346 1347 1347 1348 1349 1350 1351 1352 1353 1353 1352 1350 1348 1346
1420 1416 1411 1406 1401 1396 1391 1387 1383 1378 1373 1369 1365 1362 1358 1354 1350 1347 1344 1341 1338 1336 1334 1333 1332 1334 1334 1333 1335 1335 1334 1336 1337 1338 1339 1340 1342 1344 1344 1343 1341 1339 1338
1415 1411 1406 1400 1395 1391 1386 1382 1376 1369 1364 1359 1354 1351 1347 1344 1340 1338 1335 1331 1328 1324 1321 1320 1319 1320 1320 1321 1321 1322 1323 1324 1325 1328 1330 1331 1333 1335 1335 1334 1333 1332 1330
1409 1405 1400 1395 1390 1385 1380 1375 1370 1362 1356 1351 1346 1341 1337 1333 1330 1327 1323 1320 1317 1314 1310 1307 1305 1305 1304 1306 1308 1310 1311 1311 1313 1318 1320 1321 1323 1325 1326 1325 1324 1324 1323
1403 1399 1394 1389 1384 1379 1375 1370 1364 1357 1350 1345 1339 1333 1328 1324 1321 1317 1312 1307 1303 1300 1299 1298 1295 1293 1293 1292 1294 1296 1298 1299 1301 1306 1309 1311 1314 1315 1316 1315 1315 1315 1315
1397 1392 1388 1383 1378 1374 1370 1365 1358 1350 1343 1337 1331 1326 1320 1315 1311 1308 1303 1297 1291 1288 1286 1285 1284 1282 1282 1281 1279 1281 1285 1286 1291 1295 1299 1303 1305 1306 1306 1307 1307 1307 1307
1390 1386 1381 1376 1371 1367 1363 1358 1351 1343 1336 1329 1323 1319 1314 1308 1303 1299 1294 1287 1281 1277 1275 1273 1272 1271 1270 1270 1269 1270 1273 1277 1281 1285 1291 1296 1297 1299 1299 1299 1299 1300 1301
1385 1379 1374 1370 1366 1360 1355 1350 1344 1337 1330 1323 1316 1310 1305 1300 1294 1289 1284 1278 1272 1267 1265 1262 1261 1260 1259 1260 1259 1260 1263 1266 1271 1279 1285 1290 1291 1293 1293 1292 1293 1294 1296